FW0782 Weather Reports


time (UTC)temp
F
wind
direction
speed
knots
gust
knots
rain 1hr
in
rain 24hr
in
rain mn
in
humidity
%
barometer
mb
20260902034203 58 238 2.6 5.2 0.00 0.00 0.00 87 1019.6
20260902034004 58 238 2.6 4.3 0.00 0.00 0.00 87 1019.3
20260902033704 58 238 4.3 5.2 0.00 0.00 0.00 87 1019.6
20260902033204 58 238 3.5 6.1 0.00 0.00 0.00 87 1019.6
20260902033004 58 238 3.5 6.1 0.00 0.00 0.00 87 1019.3
20260902032703 58 238 2.6 6.1 0.00 0.00 0.00 87 1019.6
20260902032203 58 238 2.6 5.2 0.00 0.00 0.00 87 1019.7
20260902032004 58 238 3.5 5.2 0.00 0.00 0.00 87 1019.4
20260902031703 58 238 4.3 6.1 0.00 0.00 0.00 87 1019.7
20260902031204 58 238 3.5 5.2 0.00 0.00 0.00 87 1019.7
20260902031004 58 238 3.5 5.2 0.00 0.00 0.00 87 1019.4
20260902030204 58 238 2.6 6.1 0.00 0.00 0.00 87 1019.8
20260902030004 58 238 3.5 6.1 0.00 0.00 0.00 87 1019.4
20260902025704 58 238 2.6 7.0 0.00 0.00 0.00 87 1019.8
20260902025204 58 238 2.6 6.1 0.00 0.00 0.00 87 1019.9
20260902024703 58 238 3.5 6.1 0.00 0.00 0.00 86 1020.0
20260902024204 58 238 4.3 6.1 0.00 0.00 0.00 86 1020.0
20260902024004 58 239 3.5 6.1 0.00 0.00 0.00 86 1019.7
20260902023704 58 238 3.5 5.2 0.00 0.00 0.00 86 1020.0
20260902023204 58 238 2.6 5.2 0.00 0.00 0.00 86 1020.0
20260902023007 58 238 3.5 5.2 0.00 0.00 0.00 86 1019.8
20260902022704 59 238 2.6 5.2 0.00 0.00 0.00 86 1020.1
20260902022204 59 238 4.3 5.2 0.00 0.00 0.00 86 1020.1
20260902022004 59 238 3.5 5.2 0.00 0.00 0.00 86 1019.8
20260902021703 59 238 2.6 7.0 0.00 0.00 0.00 86 1020.1
20260902021204 59 238 3.5 6.1 0.00 0.00 0.00 86 1020.2
20260902020704 59 238 2.6 6.1 0.00 0.00 0.00 86 1020.1
20260902020004 59 238 3.5 5.2 0.00 0.00 0.00 86 1019.9
20260902015004 59 246 4.3 6.1 0.00 0.00 0.00 85 1019.8
20260902014704 59 246 2.6 5.2 0.00 0.00 0.00 85 1020.0
20260902014204 59 246 2.6 5.2 0.00 0.00 0.00 85 1020.1
20260902014004 59 247 1.7 5.2 0.00 0.00 0.00 85 1019.8
20260902013704 59 246 2.6 5.2 0.00 0.01 0.00 85 1020.0
20260902013204 59 246 3.5 5.2 0.00 0.01 0.00 85 1020.1
20260902012704 59 246 2.6 4.3 0.00 0.01 0.00 85 1020.1
20260902012204 59 246 3.5 5.2 0.00 0.01 0.00 85 1020.2
20260902012004 59 246 3.5 5.2 0.00 0.00 0.00 85 1019.9
20260902011704 59 246 1.7 4.3 0.00 0.02 0.00 85 1020.1
20260902011203 59 246 2.6 5.2 0.00 0.09 0.00 85 1020.1
20260902011004 59 246 2.6 5.2 0.00 0.00 0.00 85 1019.9
20260902010704 59 246 2.6 5.2 0.00 0.15 0.00 85 1020.2
20260902010204 59 246 2.6 4.3 0.00 0.15 0.00 85 1020.2
20260902010004 59 246 2.6 4.3 0.00 0.00 0.00 85 1020.0
20260902005203 59 246 2.6 5.2 0.00 0.15 0.00 85 1020.3
20260902004704 59 246 2.6 6.1 0.00 0.15 0.00 84 1020.3
20260902004004 59 246 3.5 6.1 0.00 0.00 0.00 84 1020.0
20260902003704 59 246 2.6 5.2 0.00 0.15 0.00 84 1020.3
20260902003205 59 246 4.3 5.2 0.00 0.15 0.00 84 1020.4
20260902003005 59 247 3.5 6.1 0.00 0.00 0.00 84 1020.1
20260902002704 59 246 3.5 6.1 0.00 0.15 0.00 84 1020.3
20260902002005 59 252 3.5 5.2 0.00 0.15 0.00 84 1020.0
20260902001704 59 252 3.5 5.2 0.00 0.15 0.00 84 1020.4
20260902001205 59 253 4.3 6.1 0.00 0.15 0.00 84 1020.4
20260902000705 59 261 3.5 5.2 0.00 0.15 0.00 84 1020.3
20260902000205 59 267 3.5 6.1 0.00 0.15 0.00 84 1020.4
20260902000005 59 274 2.6 5.2 0.00 0.15 0.00 84 1020.1
20260901235704 59 277 4.3 6.1 0.00 0.15 0.00 84 1020.5
20260901235205 59 284 4.3 6.1 0.00 0.15 0.00 84 1020.5
20260901235004 59 286 4.3 5.2 0.00 0.15 0.00 84 1020.2
20260901234204 59 287 2.6 5.2 0.00 0.15 0.00 84 1020.5
20260901234004 59 287 2.6 5.2 0.00 0.15 0.00 84 1020.1
20260901233705 59 287 1.7 4.3 0.00 0.15 0.00 84 1020.4
20260901233205 59 287 2.6 5.2 0.00 0.15 0.00 84 1020.5
20260901233005 59 287 3.5 5.2 0.00 0.15 0.00 84 1020.2
20260901232704 59 287 4.3 5.2 0.00 0.15 0.00 84 1020.6
20260901232204 59 287 2.6 4.3 0.00 0.15 0.00 84 1020.7
20260901232005 59 286 2.6 4.3 0.00 0.15 0.00 84 1020.4
20260901231705 59 287 1.7 5.2 0.00 0.15 0.00 84 1020.6
20260901231204 59 287 2.6 5.2 0.00 0.15 0.00 84 1020.7
20260901231005 59 286 2.6 4.3 0.00 0.15 0.00 84 1020.4
20260901230704 59 287 2.6 4.3 0.00 0.15 0.00 84 1020.7
20260901230205 58 287 1.7 4.3 0.00 0.15 0.00 84 1020.7
20260901230005 58 286 2.6 4.3 0.00 0.15 0.00 84 1020.4
20260901225705 58 287 1.7 4.3 0.00 0.15 0.00 84 1020.7
20260901225205 58 287 1.7 4.3 0.00 0.15 0.00 84 1020.7
20260901225005 58 287 1.7 4.3 0.00 0.15 0.00 84 1020.3
20260901224705 58 287 2.6 4.3 0.00 0.15 0.00 84 1020.7
20260901224005 58 286 1.7 3.5 0.00 0.15 0.00 84 1020.6
20260901223704 58 287 2.6 4.3 0.00 0.15 0.00 84 1020.9
20260901223204 58 287 1.7 4.3 0.00 0.15 0.00 84 1020.9
20260901223005 58 286 1.7 2.6 0.00 0.15 0.00 84 1020.6
20260901222704 58 287 1.7 2.6 0.00 0.15 0.00 84 1020.9
20260901222205 58 287 1.7 2.6 0.00 0.15 0.00 84 1020.9
20260901222004 58 287 1.7 3.5 0.00 0.15 0.00 84 1020.6
20260901221704 58 287 1.7 2.6 0.00 0.15 0.00 83 1020.9
20260901221204 58 287 2.6 4.3 0.00 0.15 0.00 83 1020.9
20260901221005 58 286 2.6 4.3 0.00 0.15 0.00 83 1020.5
20260901220704 58 287 2.6 4.3 0.00 0.15 0.00 83 1020.8
20260901220204 58 287 2.6 2.6 0.00 0.15 0.00 83 1020.8
20260901220007 58 287 1.7 3.5 0.00 0.15 0.00 83 1020.5
20260901215704 58 287 1.7 4.3 0.00 0.15 0.15 83 1020.8
20260901215205 58 287 0.9 2.6 0.00 0.15 0.15 83 1020.8
20260901215004 58 286 0.9 1.7 0.00 0.15 0.15 83 1020.5
20260901214204 59 287 1.7 2.6 0.00 0.15 0.15 83 1020.8
20260901214005 59 287 1.7 3.5 0.00 0.15 0.15 83 1020.5
20260901213204 59 287 0.9 0.9 0.00 0.15 0.15 83 1020.8
20260901212704 59 287 0.0 0.9 0.00 0.15 0.15 83 1020.7
20260901212004 59 286 0.9 1.7 0.00 0.15 0.15 83 1020.5
20260901211705 59 287 0.9 1.7 0.00 0.15 0.15 83 1020.8
20260901211204 58 287 0.9 2.6 0.00 0.15 0.15 83 1020.8
20260901211005 58 286 0.9 2.6 0.00 0.15 0.15 83 1020.5
20260901210704 58 287 0.9 2.6 0.00 0.15 0.15 83 1020.8
20260901210204 58 287 1.7 2.6 0.00 0.15 0.15 83 1020.7
20260901210005 58 287 0.9 3.5 0.00 0.15 0.15 82 1020.4
20260901205704 58 287 0.9 1.7 0.00 0.15 0.15 82 1020.8
20260901205204 58 287 0.9 2.6 0.00 0.15 0.15 82 1020.8
20260901204704 58 287 1.7 2.6 0.00 0.15 0.15 82 1021.0
20260901204204 58 287 0.9 1.7 0.00 0.15 0.15 82 1021.0
20260901203704 58 287 0.0 2.6 0.00 0.15 0.15 82 1021.1
20260901203205 58 287 0.9 2.6 0.00 0.15 0.15 82 1021.2
20260901203005 58 287 0.9 2.6 0.00 0.15 0.15 81 1021.0
20260901202704 58 287 0.9 2.6 0.00 0.15 0.15 81 1021.2
20260901202204 58 287 1.7 4.3 0.00 0.15 0.15 81 1021.2
20260901201204 59 287 0.9 0.9 0.00 0.15 0.15 80 1021.2
20260901200704 59 287 0.9 1.7 0.00 0.15 0.15 79 1021.3
20260901200204 60 287 0.0 1.7 0.00 0.15 0.15 79 1021.2
20260901195704 60 287 0.9 1.7 0.00 0.15 0.15 79 1021.2
20260901195204 60 287 0.0 0.9 0.00 0.15 0.15 78 1021.2
20260901194705 60 287 0.0 1.7 0.00 0.15 0.15 78 1021.1
20260901194205 60 287 0.0 1.7 0.00 0.15 0.15 79 1021.1
20260901193705 60 287 0.0 1.7 0.00 0.15 0.15 79 1021.0
20260901193205 60 287 1.7 2.6 0.00 0.15 0.15 78 1021.0
20260901192705 60 287 0.9 2.6 0.00 0.15 0.15 78 1021.0
20260901192204 60 287 1.7 2.6 0.00 0.15 0.15 78 1021.0
20260901191704 61 287 0.9 2.6 0.00 0.15 0.15 78 1020.9
20260901191204 61 287 0.9 2.6 0.00 0.15 0.15 77 1020.9
20260901190705 61 287 0.9 1.7 0.00 0.15 0.15 77 1020.9
20260901190204 61 287 1.7 2.6 0.00 0.15 0.15 76 1020.8
20260901185705 62 287 1.7 2.6 0.00 0.15 0.15 75 1020.7
20260901185204 62 287 0.9 1.7 0.00 0.15 0.15 75 1020.7
20260901184703 62 287 0.9 2.6 0.00 0.15 0.15 74 1020.7
20260901184204 63 287 0.9 1.7 0.00 0.15 0.15 74 1020.7
20260901183704 63 287 0.9 2.6 0.00 0.15 0.15 73 1020.6
20260901183204 63 287 0.9 1.7 0.00 0.15 0.15 73 1020.6
20260901182704 63 287 0.9 2.6 0.00 0.15 0.15 72 1020.6
20260901181704 64 287 1.7 2.6 0.00 0.15 0.15 71 1020.6
20260901181204 64 287 1.7 4.3 0.00 0.15 0.15 71 1020.6
20260901180704 64 287 0.9 2.6 0.00 0.15 0.15 70 1020.6
20260901180204 65 287 0.9 2.6 0.00 0.15 0.15 70 1020.7
20260901175704 65 287 2.6 4.3 0.00 0.15 0.15 70 1020.7
20260901174704 65 287 2.6 4.3 0.00 0.15 0.15 69 1020.7
20260901174204 65 287 3.5 6.1 0.00 0.15 0.15 69 1020.7
20260901173704 65 286 3.5 7.0 0.00 0.15 0.15 68 1020.8
20260901173204 65 286 5.2 8.7 0.00 0.15 0.15 67 1020.9
20260901172703 66 290 5.2 7.8 0.00 0.15 0.15 67 1020.8
20260901172204 66 290 4.3 7.8 0.00 0.15 0.15 68 1020.8
20260901171704 66 290 5.2 10.4 0.00 0.15 0.15 68 1020.8
20260901171204 66 273 6.1 10.4 0.00 0.15 0.15 68 1020.9
20260901170704 66 287 4.3 6.1 0.00 0.15 0.15 68 1020.9
20260901170204 66 286 4.3 8.7 0.00 0.15 0.15 67 1021.0
20260901165704 66 288 6.1 8.7 0.00 0.15 0.15 66 1021.0
20260901165204 67 278 6.1 8.7 0.00 0.15 0.15 66 1021.0
20260901164703 67 286 7.8 10.4 0.00 0.15 0.15 65 1021.0
20260901164204 68 276 7.0 10.4 0.00 0.15 0.15 64 1021.0
20260901163704 68 288 5.2 10.4 0.00 0.15 0.15 65 1020.9
20260901163204 68 291 6.1 12.2 0.00 0.15 0.15 65 1020.9
20260901162703 68 285 5.2 10.4 0.00 0.15 0.15 64 1020.9
20260901162203 68 290 7.8 11.3 0.00 0.15 0.15 64 1020.9
20260901161704 68 286 6.1 10.4 0.00 0.15 0.15 64 1020.8
20260901161204 69 272 5.2 8.7 0.00 0.15 0.15 64 1020.8
20260901160704 68 270 5.2 7.0 0.00 0.15 0.15 63 1020.9
20260901155703 68 287 6.1 10.4 0.00 0.15 0.15 63 1020.8
20260901154703 69 283 6.1 11.3 0.00 0.15 0.15 64 1020.8
20260901154205 69 285 6.1 10.4 0.00 0.15 0.15 62 1020.9
20260901153705 69 281 4.3 7.8 0.00 0.15 0.15 63 1020.9
20260901153205 69 289 6.1 10.4 0.00 0.15 0.15 62 1020.9
20260901152704 69 282 5.2 8.7 0.00 0.15 0.15 62 1020.8
20260901152204 69 289 5.2 8.7 0.00 0.15 0.15 62 1020.8
20260901151204 69 257 4.3 11.3 0.00 0.15 0.15 61 1020.8
20260901150205 69 277 5.2 10.4 0.00 0.15 0.15 61 1020.8
20260901145705 70 289 6.1 10.4 0.00 0.15 0.15 62 1020.7
20260901145205 70 281 4.3 8.7 0.00 0.15 0.15 61 1020.7
20260901144205 69 260 4.3 7.8 0.00 0.15 0.15 61 1020.8
20260901143705 69 252 5.2 10.4 0.00 0.15 0.15 60 1020.8
20260901143205 69 283 5.2 10.4 0.00 0.15 0.15 60 1020.9
20260901142705 69 268 6.1 13.0 0.00 0.15 0.15 61 1020.9
20260901142205 69 287 5.2 7.8 0.00 0.15 0.15 61 1020.9
20260901141704 69 281 4.3 7.0 0.00 0.15 0.15 62 1020.9
20260901141205 69 283 6.1 10.4 0.00 0.15 0.15 61 1021.0
20260901140704 69 252 6.1 12.2 0.00 0.15 0.15 62 1021.0
20260901140204 69 269 4.3 8.7 0.00 0.15 0.15 61 1021.0
20260901135705 69 289 4.3 7.0 0.00 0.15 0.15 61 1020.9
20260901134204 69 296 4.3 8.7 0.00 0.15 0.15 63 1020.9
20260901133705 69 315 4.3 7.0 0.00 0.15 0.15 63 1020.9
20260901133204 69 304 5.2 10.4 0.00 0.15 0.15 61 1021.0
20260901132705 69 288 5.2 10.4 0.00 0.15 0.15 62 1021.0
20260901132204 69 282 6.1 10.4 0.00 0.15 0.15 64 1021.0
20260901131704 69 302 6.1 10.4 0.00 0.15 0.15 62 1021.0
20260901131205 69 271 7.0 11.3 0.00 0.15 0.15 62 1021.0
20260901130705 69 283 6.1 11.3 0.00 0.15 0.15 63 1021.0
20260901125705 69 298 5.2 10.4 0.00 0.15 0.15 65 1021.0
20260901125204 69 293 6.1 11.3 0.00 0.15 0.15 62 1021.0
20260901124704 69 288 7.0 12.2 0.00 0.15 0.15 62 1021.1
20260901124204 69 277 6.1 12.2 0.00 0.15 0.15 66 1021.1
20260901123704 69 293 6.1 10.4 0.00 0.15 0.15 66 1021.0
20260901123204 68 276 7.0 11.3 0.00 0.15 0.15 65 1021.1
20260901122704 68 281 8.7 11.3 0.00 0.15 0.15 63 1021.1
20260901121704 68 289 4.3 10.4 0.00 0.15 0.15 64 1021.2
20260901120704 69 287 7.8 11.3 0.00 0.15 0.15 64 1021.2
20260901120204 69 291 6.1 11.3 0.00 0.15 0.15 64 1021.1
20260901115704 69 290 8.7 11.3 0.00 0.15 0.15 64 1021.1
20260901115204 69 292 6.1 10.4 0.00 0.15 0.15 64 1021.1
20260901114704 69 314 4.3 10.4 0.00 0.15 0.15 64 1021.1
20260901114205 69 296 5.2 10.4 0.00 0.20 0.15 65 1021.1
20260901113204 68 317 5.2 8.7 0.00 0.23 0.15 67 1021.2
20260901112204 68 300 4.3 8.7 0.00 0.23 0.15 67 1021.2
20260901111705 68 297 5.2 7.8 0.00 0.23 0.15 67 1021.1
20260901110704 68 296 6.1 11.3 0.00 0.23 0.15 67 1021.1
20260901110205 68 272 7.0 10.4 0.00 0.23 0.15 67 1021.1
20260901105704 67 289 5.2 10.4 0.00 0.23 0.15 68 1021.1
20260901105205 68 294 4.3 8.7 0.00 0.23 0.15 66 1021.1
20260901104204 68 276 5.2 8.7 0.00 0.23 0.15 65 1021.0
20260901103704 69 307 5.2 7.8 0.00 0.23 0.15 67 1021.0
20260901103204 69 298 5.2 7.0 0.00 0.23 0.15 68 1021.1
20260901102704 68 291 7.0 10.4 0.00 0.23 0.15 69 1021.0
20260901101704 68 294 6.1 8.7 0.00 0.23 0.15 71 1021.0
20260901101204 67 286 6.1 12.2 0.00 0.23 0.15 69 1021.0
20260901100704 67 288 6.1 10.4 0.00 0.23 0.15 72 1021.0
20260901100204 66 286 3.5 7.0 0.00 0.23 0.15 72 1021.1
20260901095705 66 287 3.5 8.7 0.00 0.23 0.15 73 1021.0
20260901095204 67 288 4.3 8.7 0.00 0.23 0.15 73 1021.0
20260901094704 67 294 3.5 7.0 0.00 0.23 0.15 73 1021.0
20260901093704 67 295 3.5 7.0 0.00 0.23 0.15 71 1020.9
20260901093005 67 310 4.3 6.1 0.00 0.15 0.15 72 1020.6
20260901092204 67 313 6.1 8.7 0.00 0.23 0.15 72 1020.8
20260901092005 67 314 5.2 9.6 0.00 0.15 0.15 72 1020.5
20260901091704 68 315 5.2 7.8 0.00 0.23 0.15 72 1020.8
20260901091204 68 316 5.2 10.4 0.00 0.23 0.15 72 1020.8
20260901090204 67 283 5.2 10.4 0.00 0.23 0.15 71 1020.7
20260901085205 66 275 4.3 7.8 0.00 0.23 0.15 73 1020.6
20260901085005 65 272 4.3 7.8 0.00 0.15 0.15 72 1020.3
20260901084705 66 282 5.2 10.4 0.00 0.23 0.15 73 1020.6
20260901084204 66 292 4.3 7.8 0.00 0.23 0.15 74 1020.5
20260901084005 66 293 4.3 7.0 0.00 0.15 0.15 74 1020.3
20260901083204 66 286 3.5 7.0 0.00 0.23 0.15 76 1020.5
20260901083004 66 288 4.3 7.0 0.00 0.15 0.15 76 1020.2
20260901082204 65 292 4.3 7.8 0.00 0.24 0.15 82 1020.4
20260901082004 65 293 4.3 5.2 0.00 0.15 0.15 82 1020.1
20260901081704 64 290 5.2 8.7 0.00 0.24 0.15 83 1020.3
20260901081204 64 295 5.2 7.8 0.00 0.24 0.15 84 1020.3
20260901081005 64 308 4.3 7.8 0.00 0.15 0.15 84 1019.9
20260901075705 64 276 1.7 7.0 0.00 0.26 0.15 88 1020.2
20260901075005 63 259 4.3 7.8 0.00 0.15 0.15 89 1019.9
20260901074705 63 248 4.3 6.1 0.00 0.36 0.15 89 1020.1
20260901074204 63 248 2.6 5.2 0.00 0.37 0.15 89 1020.1
20260901074004 62 249 2.6 5.2 0.00 0.15 0.15 90 1019.8
20260901073704 62 248 3.5 5.2 0.00 0.37 0.15 90 1020.0
20260901073204 62 248 2.6 5.2 0.00 0.37 0.15 90 1019.9
20260901073004 62 249 2.6 7.0 0.00 0.15 0.15 90 1019.6
20260901072704 62 248 1.7 4.3 0.00 0.37 0.15 91 1019.9
20260901072204 62 248 1.7 4.3 0.00 0.37 0.15 91 1019.8
20260901072005 62 249 1.7 4.3 0.00 0.15 0.15 91 1019.4
20260901071704 62 249 2.6 5.2 0.00 0.37 0.15 91 1019.7
20260901071204 61 248 2.6 5.2 0.00 0.38 0.15 91 1019.7
20260901071005 61 249 3.5 5.2 0.00 0.15 0.15 91 1019.4
20260901070704 61 248 4.3 5.2 0.00 0.38 0.15 91 1019.8
20260901070204 61 248 1.7 4.3 0.00 0.38 0.15 91 1019.7
20260901070004 61 249 1.7 3.5 0.00 0.15 0.15 91 1019.4
20260901065704 61 248 2.6 4.3 0.00 0.38 0.15 91 1019.7
20260901065204 61 275 2.6 2.6 0.00 0.39 0.15 91 1019.6
20260901065004 61 249 1.7 3.5 0.00 0.15 0.15 91 1019.3
20260901064704 61 248 1.7 4.3 0.00 0.39 0.15 91 1019.6
20260901064005 61 249 0.9 3.5 0.00 0.15 0.15 91 1019.3
20260901063705 60 248 0.9 1.7 0.00 0.39 0.15 91 1019.5
20260901063205 60 248 0.9 1.7 0.00 0.45 0.15 91 1019.5
20260901063005 60 249 0.9 1.7 0.00 0.15 0.15 91 1019.2
20260901062705 60 248 0.9 1.7 0.00 0.45 0.15 91 1019.5
20260901062205 60 248 0.9 2.6 0.00 0.45 0.15 91 1019.4
20260901062005 60 249 0.9 1.7 0.00 0.15 0.15 91 1019.1
20260901061705 59 248 0.9 2.6 0.00 0.45 0.15 91 1019.4
20260901061205 59 248 0.9 2.6 0.00 0.45 0.15 91 1019.3
20260901061006 59 249 0.9 2.6 0.00 0.15 0.15 91 1018.9
20260901060205 59 248 0.9 1.7 0.00 0.45 0.15 91 1019.1
20260901055705 60 248 0.9 2.6 0.00 0.45 0.15 91 1019.1
20260901055005 60 249 0.9 2.6 0.00 0.15 0.15 91 1018.8
20260901054205 60 248 0.0 1.7 0.00 0.45 0.15 91 1018.9
20260901054006 60 249 0.9 1.7 0.00 0.15 0.15 91 1018.6
20260901053205 60 248 0.9 2.6 0.00 0.45 0.15 91 1018.8
20260901052705 60 248 1.7 2.6 0.00 0.45 0.15 91 1018.8
20260901052205 60 248 2.6 5.2 0.00 0.45 0.15 91 1018.8
20260901052006 60 249 0.9 3.5 0.00 0.15 0.15 91 1018.5
20260901051705 60 248 0.9 4.3 0.00 0.45 0.15 91 1018.7
20260901051205 60 248 2.6 4.3 0.00 0.45 0.15 91 1018.7
20260901051005 60 249 2.6 4.3 0.00 0.15 0.15 91 1018.3
20260901050705 60 248 1.7 4.3 0.00 0.45 0.15 91 1018.6
20260901050005 60 249 0.9 4.3 0.00 0.15 0.15 91 1018.2
20260901045705 60 248 0.9 2.6 0.00 0.45 0.15 91 1018.5
20260901045205 61 248 1.7 4.3 0.00 0.45 0.15 91 1018.5
20260901045006 61 249 1.7 4.3 0.00 0.15 0.15 91 1018.2
20260901044205 61 248 1.7 2.6 0.00 0.45 0.15 90 1018.5
20260901044006 61 249 1.7 3.5 0.00 0.15 0.15 90 1018.2
20260901043705 61 248 1.7 2.6 0.00 0.45 0.15 90 1018.4
20260901043205 61 248 0.9 2.6 0.00 0.45 0.15 91 1018.4
20260901043005 61 249 0.9 2.6 0.00 0.15 0.15 91 1018.1
20260901042705 61 248 0.9 1.7 0.00 0.45 0.15 91 1018.3
20260901042205 61 248 0.0 0.9 0.00 0.45 0.15 91 1018.2
20260901042005 61 248 0.0 1.7 0.00 0.15 0.15 91 1017.9
20260901041704 61 248 0.0 1.7 0.00 0.45 0.15 91 1018.1
20260901041205 61 248 0.9 1.7 0.00 0.45 0.15 90 1018.1
20260901041005 61 249 0.9 1.7 0.00 0.15 0.15 90 1017.8
20260901040205 61 248 0.0 0.9 0.00 0.45 0.15 90 1018.1
20260901040005 62 248 0.0 0.9 0.00 0.15 0.15 90 1017.8
20260901035705 61 248 0.0 0.0 0.00 0.45 0.15 90 1018.1
20260901035204 61 248 0.0 0.0 0.00 0.45 0.15 90 1018.1
20260901035005 62 0 0.0 0.0 0.00 0.15 0.15 90 1017.8
20260901034705 61 248 0.0 0.0 0.00 0.45 0.15 90 1018.1